EHI
4 4 3 1 0 0 0 0 0 0 0 0 0 0 0 0 0 0 1 2 3 4 5 4 4 5 5 7 9 9 7 6 4 4 4 3 3 4 4 4 3 3 3
4 4 4 2 0 0 0 0 0 0 0 1 1 1 0 0 0 0 1 2 3 5 6 5 4 4 4 5 7 7 5 5 4 4 4 3 3 3 4 4 4 3 3
3 3 3 2 0 0 0 0 0 0 0 1 2 2 1 0 0 0 0 1 2 3 5 5 4 4 4 4 5 4 4 4 4 4 4 3 3 3 4 4 4 4 3
2 1 1 1 1 1 1 1 1 1 0 1 1 2 2 0 0 0 0 0 1 2 4 5 5 5 6 6 5 4 3 3 4 4 4 3 3 4 4 4 4 3 3
1 1 2 3 3 2 2 2 2 2 1 1 1 3 3 1 0 0 0 1 1 3 3 4 4 5 7 7 6 5 4 3 3 4 3 3 3 3 4 3 3 3 3
2 2 3 4 4 3 3 3 3 3 3 2 3 3 3 1 0 0 0 1 3 3 3 3 3 4 6 7 6 4 4 4 3 3 3 3 3 4 4 4 4 4 4
3 3 3 5 4 3 3 3 3 3 3 3 3 3 2 1 0 0 0 1 3 4 4 3 3 4 5 6 6 5 5 5 4 3 3 3 4 5 4 4 5 4 4
3 3 3 5 5 4 3 3 3 2 2 2 2 3 3 1 0 0 0 1 3 4 3 3 3 4 5 4 5 7 7 5 3 3 3 4 5 5 4 4 4 4 4
3 3 3 3 3 3 2 2 1 1 1 0 1 2 3 2 1 0 1 2 3 3 3 3 3 3 3 3 4 5 5 3 1 1 2 4 5 4 3 3 3 3 3
2 2 1 1 1 1 1 1 1 1 0 0 0 1 2 2 1 1 2 3 3 3 3 3 3 2 2 3 4 4 2 1 0 1 2 5 5 4 3 3 3 3 3
1 1 0 0 0 0 1 1 1 1 0 0 0 0 1 1 1 1 2 2 2 2 2 2 2 1 1 3 4 4 2 0 1 2 3 5 5 3 3 3 3 3 3
0 0 0 0 0 1 2 2 1 1 1 0 0 0 0 0 0 0 1 2 1 1 1 1 1 0 1 2 3 2 1 1 2 2 3 5 4 3 3 3 3 3 3
0 0 0 1 1 2 3 2 1 1 1 1 0 0 0 0 0 1 2 2 1 0 0 0 0 0 0 1 1 1 0 1 2 2 3 5 4 3 2 3 3 3 3
0 0 0 0 0 1 2 2 1 1 2 1 0 1 1 1 0 1 2 2 1 0 0 0 0 0 0 0 0 0 0 1 2 2 3 4 3 1 1 1 2 2 2
1 1 0 0 0 0 1 1 0 1 1 0 0 1 2 2 1 0 1 1 1 0 0 0 0 0 0 0 0 0 0 1 1 2 2 2 1 0 0 0 1 1 1
2 2 1 0 0 0 0 0 0 0 0 1 1 0 1 1 1 0 0 0 0 0 1 1 1 0 0 0 0 0 0 0 0 0 0 0 0 0 0 0 0 0 0
2 2 2 1 0 0 0 1 1 1 1 2 1 0 0 0 0 0 0 0 0 0 1 2 1 0 0 0 0 0 0 0 0 0 0 0 0 0 0 0 0 0 0
1 2 2 1 1 1 1 2 2 1 1 2 2 0 0 0 0 1 1 0 0 0 1 1 0 0 0 0 0 0 0 0 0 0 0 0 0 0 0 0 0 0 0
0 1 2 2 3 3 3 2 1 1 1 2 2 1 0 0 0 1 2 1 0 0 0 0 0 0 0 0 0 0 0 0 0 0 0 0 0 0 0 0 0 0 0
1 1 2 3 3 3 3 2 0 0 0 1 1 2 1 1 1 2 2 1 1 1 0 0 0 0 0 0 0 0 0 0 0 0 0 0 0 0 0 0 0 0 0
2 3 3 3 2 2 3 2 1 1 1 0 1 2 2 2 2 3 3 3 2 2 1 0 0 0 0 0 0 0 0 0 0 0 0 0 0 0 0 0 0 0 0
3 4 4 3 1 1 2 2 2 2 2 1 0 1 3 3 3 3 3 2 2 2 1 0 0 0 0 0 0 0 0 0 0 0 0 0 0 0 0 0 0 0 0
4 4 4 3 3 2 1 1 2 2 2 1 0 1 2 3 3 3 1 1 1 1 0 0 0 0 0 0 0 0 0 0 0 0 0 0 0 0 0 0 0 0 0
7 6 4 3 3 2 1 0 1 1 1 0 0 1 2 3 3 2 1 0 0 0 0 0 0 0 0 0 0 0 0 0 0 0 0 0 0 0 0 0 0 0 0
11 9 6 4 3 3 1 1 0 0 0 0 0 1 2 3 3 1 0 0 0 0 0 0 0 0 0 0 0 0 0 0 0 0 0 0 0 0 0 0 0 0 0
12 11 8 6 4 3 2 2 1 0 0 0 0 1 2 3 2 1 0 0 0 0 0 0 0 0 0 0 0 0 0 0 0 0 0 0 0 0 0 0 0 0 0
Wind_Speed
6 9 11 11 11 11 11 10 11 11 10 10 11 10 10 10 10 10 9 9 9 10 10 11 11 11 11 11 10 10 10 9 9 9 9 9 8 8 9 8 8 7 10
8 10 11 10 11 11 11 11 10 10 10 10 10 11 11 11 10 10 10 10 10 11 11 11 11 11 11 11 10 10 9 9 9 9 8 7 8 8 9 9 9 7 10
8 9 9 10 10 10 11 10 10 10 10 10 11 11 11 11 11 11 12 12 12 12 12 12 11 11 11 11 11 10 9 9 8 8 7 4 6 9 9 9 10 10 10
9 9 9 9 10 10 10 10 10 10 10 10 11 11 11 11 11 11 12 13 13 13 12 12 12 12 12 11 11 11 10 10 9 9 5 5 6 10 10 10 10 10 10
9 10 9 10 10 10 10 10 10 10 11 11 11 11 11 11 11 12 12 13 13 12 12 12 12 12 12 12 11 11 10 11 11 9 7 7 6 11 12 11 11 11 11
9 10 9 10 10 10 10 11 11 11 11 11 11 11 11 11 11 12 13 13 13 12 12 12 12 12 12 11 11 10 11 12 10 7 8 7 7 12 13 13 12 11 11
7 9 10 10 10 10 11 11 11 10 10 11 11 11 11 11 12 12 13 13 13 13 12 12 12 12 12 11 11 10 9 11 7 7 7 7 9 13 13 12 12 12 12
7 8 10 10 10 10 10 10 9 9 9 10 10 11 11 11 12 12 13 13 13 13 13 13 12 12 12 11 11 10 10 10 9 9 7 7 12 13 13 12 12 12 11
6 6 8 9 9 10 9 8 8 8 8 9 9 10 10 11 11 12 12 12 12 12 12 12 12 11 11 10 10 10 11 12 7 5 8 6 12 13 13 12 12 12 11
5 5 6 7 7 7 7 7 7 7 6 7 8 8 9 10 10 11 11 12 12 12 11 11 10 10 10 10 9 9 10 9 6 7 5 7 13 13 13 12 12 11 11
4 4 5 5 5 5 6 7 6 5 4 4 5 6 5 4 5 7 11 12 11 11 10 9 8 8 9 9 8 8 7 5 6 5 5 10 12 13 12 12 11 11 11
4 4 4 4 5 5 5 5 3 3 3 2 3 3 3 3 4 6 9 10 10 9 8 7 8 7 5 3 5 6 4 5 5 5 6 12 12 12 12 11 11 10 10
4 4 4 4 4 5 3 3 2 2 1 2 2 3 3 3 4 4 3 4 4 4 2 3 3 3 4 3 3 4 5 5 4 5 7 13 12 11 11 11 10 10 9
5 4 4 4 4 5 4 2 2 2 2 2 2 3 3 2 2 2 2 2 2 2 2 2 2 4 5 5 5 6 6 5 4 4 6 12 11 11 11 11 10 10 9
5 4 4 4 4 5 4 2 3 2 2 3 2 2 3 3 3 2 2 2 3 2 2 3 4 5 5 5 5 6 6 6 6 5 4 10 11 11 11 10 10 9 9
5 5 3 4 5 4 3 3 3 2 2 2 2 2 4 3 3 3 3 3 3 3 3 3 4 4 4 4 5 5 5 5 5 5 4 6 10 10 10 10 9 9 9
4 5 4 3 4 3 4 3 3 2 3 2 2 3 3 3 3 3 3 3 3 3 4 4 4 3 3 4 4 4 4 4 4 4 4 3 4 8 10 10 9 8 7
4 4 4 4 3 3 3 3 3 3 3 3 3 3 3 3 5 3 3 3 3 3 3 3 3 3 3 3 3 2 2 2 3 3 4 3 3 4 5 8 8 8 7
4 4 4 4 3 4 4 3 3 3 3 2 2 2 3 4 4 3 2 2 3 2 2 2 3 3 3 2 2 1 1 2 2 2 3 4 4 3 3 5 7 7 6
4 4 4 4 4 4 3 3 3 3 2 2 2 2 3 3 4 3 2 3 3 2 2 2 3 2 1 1 2 2 1 2 2 2 2 3 3 3 3 4 3 4 6
4 4 4 3 3 3 2 2 2 2 2 2 2 3 3 3 3 2 2 2 2 2 1 2 2 1 1 1 2 1 1 1 2 2 2 2 2 2 3 3 2 2 2
3 3 3 3 3 3 2 2 2 2 1 1 1 2 2 2 2 2 2 2 2 2 2 2 1 1 0 0 1 1 1 1 2 1 1 2 2 1 2 3 3 3 3
3 3 2 3 3 3 3 2 2 2 1 1 1 1 2 2 2 1 1 2 2 2 2 1 1 1 0 1 1 1 1 1 0 1 1 1 2 2 2 2 3 4 4
3 2 2 2 2 3 3 3 2 2 1 1 1 1 1 1 1 1 1 1 2 2 1 1 1 1 1 1 1 1 1 2 2 0 1 1 1 2 2 2 3 3 4
3 2 2 2 2 2 3 3 2 1 1 1 1 1 1 1 1 1 1 1 1 1 1 1 1 1 1 0 0 0 1 1 1 2 1 0 1 1 1 2 2 3 4
3 3 2 2 2 2 2 3 2 2 1 1 1 1 0 0 0 1 1 0 0 1 1 1 1 1 0 0 0 0 0 0 0 1 1 1 1 1 1 2 2 3 3
Wind_Direction
78 80 60 52 46 45 47 51 53 54 56 57 56 54 53 56 56 55 57 63 68 69 71 73 75 77 78 81 83 84 85 86 88 89 92 92 92 90 91 93 95 93 96
87 86 67 55 50 48 49 54 56 56 57 58 58 56 57 61 59 58 56 63 75 76 74 75 76 75 77 79 80 81 83 86 87 89 91 92 94 93 93 90 90 94 95
90 87 72 57 53 51 52 56 58 58 60 61 61 60 62 62 61 59 58 64 75 78 77 77 76 76 76 78 78 76 76 79 80 79 81 95 97 92 94 93 91 96 96
90 86 75 64 59 57 56 56 60 61 62 63 62 63 66 66 66 65 64 66 73 76 77 77 77 76 76 77 76 74 74 71 68 66 68 80 90 92 93 93 91 92 93
91 91 84 73 67 63 61 60 63 66 65 65 64 64 68 69 69 69 69 70 74 77 79 78 77 76 75 75 73 72 72 70 67 62 67 75 79 89 89 88 88 89 88
96 98 95 84 75 70 66 65 68 67 67 66 66 66 67 69 71 70 71 70 72 76 77 78 79 78 75 74 72 71 71 70 66 64 66 72 79 84 85 84 83 85 86
94 101 105 98 88 80 73 70 69 70 71 70 69 69 70 70 72 74 73 71 72 75 76 77 80 80 78 74 72 70 74 75 75 70 70 72 81 85 83 83 82 82 81
100 105 115 115 106 95 86 79 74 73 74 76 75 74 75 75 75 76 76 77 77 77 78 77 76 78 77 75 72 68 66 70 76 76 70 71 83 84 84 83 83 81 79
106 114 127 133 126 112 102 94 87 83 80 84 87 83 82 80 78 76 77 80 80 81 82 84 82 79 77 75 74 71 69 70 65 69 74 72 82 82 82 83 82 81 79
116 119 119 128 130 131 123 114 108 102 96 96 99 96 93 90 85 83 80 79 81 81 83 84 86 88 87 84 79 74 72 70 69 71 72 79 82 82 80 82 81 79 78
95 100 104 112 116 122 127 126 133 128 125 123 123 121 107 93 93 87 89 87 85 82 82 83 84 98 100 91 83 73 70 76 76 75 72 82 83 83 82 81 80 80 79
86 84 91 95 106 105 103 120 127 117 127 133 123 128 114 99 94 96 100 100 97 91 85 78 76 96 100 95 90 83 78 78 77 79 81 85 83 84 83 83 81 80 80
94 82 85 84 95 101 99 107 101 99 100 84 92 104 101 104 109 106 110 109 105 104 86 75 67 77 88 87 81 81 80 73 70 73 78 81 82 85 87 86 82 80 81
100 85 81 87 85 91 90 93 95 92 85 70 60 85 96 89 95 102 105 109 101 81 71 68 60 63 62 72 77 76 77 78 79 79 79 81 81 82 86 88 83 81 80
112 96 74 75 79 87 87 77 92 88 88 87 59 76 90 93 96 95 92 88 83 71 66 59 62 59 54 49 60 73 78 81 84 81 80 80 79 81 82 87 87 83 81
108 107 85 78 77 79 92 87 77 84 87 86 65 70 81 85 90 85 79 72 75 71 68 70 72 66 61 57 54 58 72 84 88 93 92 82 78 79 79 82 82 81 80
113 113 103 83 86 79 80 78 78 71 76 71 56 59 75 85 88 79 77 75 72 70 70 70 70 67 72 67 60 58 60 74 94 100 102 96 86 78 77 76 75 79 82
105 107 110 97 91 86 76 72 77 70 65 62 53 46 57 74 85 77 75 72 75 69 70 73 74 63 64 63 55 55 59 61 95 112 111 109 103 94 84 80 73 72 81
94 102 107 103 98 89 85 83 77 80 73 67 56 43 46 51 73 80 79 82 78 69 70 79 79 81 80 78 81 70 54 49 52 85 100 112 111 115 111 93 80 71 76
87 92 87 97 97 87 76 73 71 72 74 71 70 71 63 50 65 74 85 83 84 76 66 68 78 85 102 113 97 81 84 83 57 45 67 86 103 120 119 118 104 77 74
86 86 87 77 92 91 79 75 77 71 68 65 55 64 68 60 67 68 76 80 84 98 110 102 97 99 128 139 97 53 30 72 92 61 58 78 80 99 116 122 124 107 84
100 90 97 94 87 100 102 101 110 114 107 90 58 57 60 61 65 70 79 91 86 87 86 91 100 90 313 256 128 129 89 16 23 55 66 77 73 68 86 110 116 108 99
122 115 105 102 100 101 109 97 84 80 88 88 92 68 52 58 70 72 76 96 123 122 125 146 148 138 250 307 61 128 141 156 337 350 43 84 90 72 59 69 85 98 102
123 118 118 111 110 116 113 104 106 111 115 132 128 123 107 85 76 69 81 92 104 106 127 178 139 145 135 302 334 341 105 136 139 114 343 45 90 94 94 84 74 83 91
121 108 107 111 99 104 122 119 125 108 125 107 89 117 132 123 98 85 75 63 111 129 153 138 96 100 142 172 257 327 6 1 160 142 180 239 49 83 101 101 96 87 87
126 128 118 120 120 106 117 133 134 134 140 111 100 99 118 79 110 132 153 154 81 110 112 108 120 142 211 243 250 209 162 211 271 141 166 179 138 133 99 95 105 109 107